Regional Weather Roundup
Issued by NWS

Home | Current Version | Previous Version | Text Only | Print | Product List | Glossary On
Versions: 1 2 3 4 5 6 7 8 9 10 11 12 13 14 15 16 17 18 19 20 21 22 23 24 25 26 27 28 29 30 31 32 33 34 35 36 37 38 39 40 41 42 43 44 45 46 47 48 49 50
000
ASUS43 KTOP 040108
RWRKS

WEATHER ROUNDUP FOR KANSAS
NATIONAL WEATHER SERVICE GOODLAND KS
800 PM CDT THU SEP 03 2015

NOTE:  "FAIR" INDICATES FEW OR NO CLOUDS BELOW 12,000 FEET WITH NO
SIGNIFICANT WEATHER AND/OR OBSTRUCTIONS TO VISIBILITY.

KSZ001>006-013>018-027>032-041>047-040200-
NORTHWEST KANSAS

CITY           SKY/WX    TMP DP  RH WIND       PRES   REMARKS
GOODLAND       CLOUDY    88  54  31 S13       29.80R
HAYS           CLOUDY    90  57  33 S18       29.77R
HILL CITY      CLOUDY    91  58  32 S14G26    29.76S
RUSSELL        MOCLDY    90  59  35 S18G26    29.77R
$$

KSZ061>065-074>080-084>089-040200-
SOUTHWEST KANSAS

CITY           SKY/WX    TMP DP  RH WIND       PRES   REMARKS
DODGE CITY     CLOUDY    86  56  35 S17       29.81F
ELKHART          N/A     85  53  33 S8          N/A
GARDEN CITY    MOCLDY    87  58  37 S15       29.79S
GREAT BEND     CLOUDY    88  59  37 S16       29.79S
LIBERAL        MOCLDY    90  54  29 S18G26    29.83R
PRATT          MOCLDY    88  55  33 MISG      29.83S
$$

KSZ066>073-081>083-090>101-040200-
SOUTHEAST KANSAS

CITY           SKY/WX    TMP DP  RH WIND       PRES   REMARKS
CHANUTE        CLEAR     77  70  79 SE5       29.88F
COFFEYVILLE    CLEAR     79  71  76 SE6       29.87F
HUTCHINSON     MOCLDY    86  60  41 SE12      29.82S
MEDICINE LODGE   N/A     89  59  36 S14G21    29.81S
NEWTON         PTCLDY    82  61  47 S13       29.88S
PARSONS        CLEAR     78  72  81 SE3       29.89F
WICHITA INTL   MOCLDY    84  63  49 SE12      29.84S
WICHITA JABRA  PTCLDY    82  65  56 S10       29.85S
WICHITA MCCONL PTCLDY    83  63  49 SE10      29.85S
WINFIELD       MOCLDY    84  66  54 SE9       29.86S
$$

KSZ007>012-019>026-033>040-048>060-102>105-040200-
NORTHEAST KANSAS

CITY           SKY/WX    TMP DP  RH WIND       PRES   REMARKS
CONCORDIA      PTCLDY    85  63  47 S10       29.80R
EMPORIA        PTCLDY    82  67  60 SE13      29.86S
LAWRENCE       CLEAR     80  67  64 S8        29.87S
MANHATTAN      PTCLDY    84  67  56 S6        29.82R
MARYSVILLE     PTCLDY    84  66  54 S7        29.82R
OLATHE IND     CLEAR     78  70  76 S6        29.90S
OLATHE EXE     CLEAR     78  69  73 S7        29.89S
SALINA         MOCLDY    87  64  46 SE13      29.80S
TOPEKA BILLARD CLEAR     83  68  60 SE9       29.85S
TOPEKA FORBES  CLEAR     82  68  62 SE8       29.86S
$$



USA.gov is the U.S. government's official web portal to all federal, state and local government web resources and services.